"Time","Value","Approval","myLocation"
"2023-05-11 00:00",11.5947036751972,"Approved","OW354"
"2023-05-11 01:00",11.5957046372907,"Approved","OW354"
"2023-05-11 02:00",11.5957055993843,"Approved","OW354"
"2023-05-11 03:00",11.5977065614778,"Approved","OW354"
"2023-05-11 04:00",11.5977075235713,"Approved","OW354"
"2023-05-11 05:00",11.5977084856648,"Approved","OW354"
"2023-05-11 06:00",11.5977094477583,"Approved","OW354"
"2023-05-11 07:00",11.5977104098518,"Approved","OW354"
"2023-05-11 08:00",11.5967113719454,"Approved","OW354"
"2023-05-11 09:00",11.5987123340389,"Approved","OW354"
"2023-05-11 10:00",11.5977132961324,"Approved","OW354"
"2023-05-11 11:00",11.5977142582259,"Approved","OW354"
"2023-05-11 12:00",11.5987152203194,"Approved","OW354"
"2023-05-11 13:00",11.5987161824129,"Approved","OW354"
"2023-05-11 14:00",11.5997171445064,"Approved","OW354"
"2023-05-11 15:00",11.6007181066,"Approved","OW354"
"2023-05-11 16:00",11.5997190686935,"Approved","OW354"
"2023-05-11 17:00",11.599720030787,"Approved","OW354"
"2023-05-11 18:00",11.5997209928805,"Approved","OW354"
"2023-05-11 19:00",11.597721954974,"Approved","OW354"
"2023-05-11 20:00",11.5987229170675,"Approved","OW354"
"2023-05-11 21:00",11.5987238791611,"Approved","OW354"
"2023-05-11 22:00",11.5977248412546,"Approved","OW354"
"2023-05-11 23:00",11.5977258033481,"Approved","OW354"
"2023-05-12 00:00",11.5977267654416,"Approved","OW354"
"2023-05-12 01:00",11.5987277275351,"Approved","OW354"
"2023-05-12 02:00",11.5977286896286,"Approved","OW354"
"2023-05-12 03:00",11.5997296517221,"Approved","OW354"
"2023-05-12 04:00",11.6007306138157,"Approved","OW354"
"2023-05-12 05:00",11.6007315759092,"Approved","OW354"
"2023-05-12 06:00",11.6007325380027,"Approved","OW354"
"2023-05-12 07:00",11.6007335000962,"Approved","OW354"
"2023-05-12 08:00",11.6017344621897,"Approved","OW354"
"2023-05-12 09:00",11.6017354242832,"Approved","OW354"
"2023-05-12 10:00",11.6017363863768,"Approved","OW354"
"2023-05-12 11:00",11.6017373484703,"Approved","OW354"
"2023-05-12 12:00",11.6007383105638,"Approved","OW354"
"2023-05-12 13:00",11.6027392726573,"Approved","OW354"
"2023-05-12 14:00",11.6027402347508,"Approved","OW354"
"2023-05-12 15:00",11.6037411968443,"Approved","OW354"
"2023-05-12 16:00",11.6037421589378,"Approved","OW354"
"2023-05-12 17:00",11.6027431210314,"Approved","OW354"
"2023-05-12 18:00",11.6037440831249,"Approved","OW354"
"2023-05-12 19:00",11.6027450452184,"Approved","OW354"
"2023-05-12 20:00",11.6017460073119,"Approved","OW354"
"2023-05-12 21:00",11.6017469694054,"Approved","OW354"
"2023-05-12 22:00",11.6017479314989,"Approved","OW354"
"2023-05-12 23:00",11.6017488935925,"Approved","OW354"
"2023-05-13 00:00",11.601749855686,"Approved","OW354"
"2023-05-13 01:00",11.6017508177795,"Approved","OW354"
"2023-05-13 02:00",11.601751779873,"Approved","OW354"
"2023-05-13 03:00",11.6027527419665,"Approved","OW354"
"2023-05-13 04:00",11.60375370406,"Approved","OW354"
"2023-05-13 05:00",11.6047546661535,"Approved","OW354"
"2023-05-13 06:00",11.6037556282471,"Approved","OW354"
"2023-05-13 07:00",11.6047565903406,"Approved","OW354"
"2023-05-13 08:00",11.6047575524341,"Approved","OW354"
"2023-05-13 09:00",11.6037585145276,"Approved","OW354"
"2023-05-13 10:00",11.6047594766211,"Approved","OW354"
"2023-05-13 11:00",11.6047604387146,"Approved","OW354"
"2023-05-13 12:00",11.6057614008082,"Approved","OW354"
"2023-05-13 13:00",11.6047623629017,"Approved","OW354"
"2023-05-13 14:00",11.6057633249952,"Approved","OW354"
"2023-05-13 15:00",11.6057642870887,"Approved","OW354"
"2023-05-13 16:00",11.6057652491822,"Approved","OW354"
"2023-05-13 17:00",11.6047662112757,"Approved","OW354"
"2023-05-13 18:00",11.6037671733693,"Approved","OW354"
"2023-05-13 19:00",11.6047681354628,"Approved","OW354"
"2023-05-13 20:00",11.6037690975563,"Approved","OW354"
"2023-05-13 21:00",11.6017700596498,"Approved","OW354"
"2023-05-13 22:00",11.6027710217433,"Approved","OW354"
"2023-05-13 23:00",11.6017719838368,"Approved","OW354"
"2023-05-14 00:00",11.6007729459303,"Approved","OW354"
"2023-05-14 01:00",11.6007739080239,"Approved","OW354"
"2023-05-14 02:00",11.6017748701174,"Approved","OW354"
"2023-05-14 03:00",11.6027758322109,"Approved","OW354"
"2023-05-14 04:00",11.6037767943044,"Approved","OW354"
"2023-05-14 05:00",11.6037777563979,"Approved","OW354"
"2023-05-14 06:00",11.6057787184914,"Approved","OW354"
"2023-05-14 07:00",11.603779680585,"Approved","OW354"
"2023-05-14 08:00",11.6037806426785,"Approved","OW354"
"2023-05-14 09:00",11.603781604772,"Approved","OW354"
"2023-05-14 10:00",11.6037825668655,"Approved","OW354"
"2023-05-14 11:00",11.603783528959,"Approved","OW354"
"2023-05-14 12:00",11.6027844910525,"Approved","OW354"
"2023-05-14 13:00",11.602785453146,"Approved","OW354"
"2023-05-14 14:00",11.6027864152396,"Approved","OW354"
"2023-05-14 15:00",11.6037873773331,"Approved","OW354"
"2023-05-14 16:00",11.6037883394266,"Approved","OW354"
"2023-05-14 17:00",11.6017893015201,"Approved","OW354"
"2023-05-14 18:00",11.6017902636136,"Approved","OW354"
"2023-05-14 19:00",11.6017912257071,"Approved","OW354"
"2023-05-14 20:00",11.6007921878007,"Approved","OW354"
"2023-05-14 21:00",11.5987931498942,"Approved","OW354"
"2023-05-14 22:00",11.6017941119877,"Approved","OW354"
"2023-05-14 23:00",11.6007950740812,"Approved","OW354"
"2023-05-15 00:00",11.6017960361747,"Approved","OW354"
"2023-05-15 01:00",11.6007969982682,"Approved","OW354"
"2023-05-15 02:00",11.6027979603617,"Approved","OW354"
"2023-05-15 03:00",11.6017989224553,"Approved","OW354"
"2023-05-15 04:00",11.6037998845488,"Approved","OW354"
"2023-05-15 05:00",11.6038008466423,"Approved","OW354"
"2023-05-15 06:00",11.6028018087358,"Approved","OW354"
"2023-05-15 07:00",11.6038027708293,"Approved","OW354"
"2023-05-15 08:00",11.6028037329228,"Approved","OW354"
"2023-05-15 09:00",11.6028046950164,"Approved","OW354"
"2023-05-15 10:00",11.6018056571099,"Approved","OW354"
"2023-05-15 11:00",11.6018066192034,"Approved","OW354"
"2023-05-15 12:00",11.6028075812969,"Approved","OW354"
"2023-05-15 13:00",11.6038085433904,"Approved","OW354"
"2023-05-15 14:00",11.6038095054839,"Approved","OW354"
"2023-05-15 15:00",11.6028104675774,"Approved","OW354"
"2023-05-15 16:00",11.602811429671,"Approved","OW354"
"2023-05-15 17:00",11.6028123917645,"Approved","OW354"
"2023-05-15 18:00",11.602813353858,"Approved","OW354"
"2023-05-15 19:00",11.6018143159515,"Approved","OW354"
"2023-05-15 20:00",11.602815278045,"Approved","OW354"
"2023-05-15 21:00",11.6018162401385,"Approved","OW354"
"2023-05-15 22:00",11.6018172022321,"Approved","OW354"
"2023-05-15 23:00",11.6018181643256,"Approved","OW354"
"2023-05-16 00:00",11.6018191264191,"Approved","OW354"
"2023-05-16 01:00",11.6018200885126,"Approved","OW354"
"2023-05-16 02:00",11.6028210506061,"Approved","OW354"
"2023-05-16 03:00",11.6038220126996,"Approved","OW354"
"2023-05-16 04:00",11.6048229747931,"Approved","OW354"
"2023-05-16 05:00",11.6048239368867,"Approved","OW354"
"2023-05-16 06:00",11.6048248989802,"Approved","OW354"
"2023-05-16 07:00",11.6068258610737,"Approved","OW354"
"2023-05-16 08:00",11.6098268231672,"Approved","OW354"
"2023-05-16 09:00",11.6078277852607,"Approved","OW354"
"2023-05-16 10:00",11.6078287473542,"Approved","OW354"
"2023-05-16 11:00",11.6068297094478,"Approved","OW354"
"2023-05-16 12:00",11.6068306715413,"Approved","OW354"
"2023-05-16 13:00",11.6078316336348,"Approved","OW354"
"2023-05-16 14:00",11.6088325957283,"Approved","OW354"
"2023-05-16 15:00",11.6088335578218,"Approved","OW354"
"2023-05-16 16:00",11.6098345199153,"Approved","OW354"
"2023-05-16 17:00",11.6078354820089,"Approved","OW354"
"2023-05-16 18:00",11.6078364441024,"Approved","OW354"
"2023-05-16 19:00",11.6068374061959,"Approved","OW354"
"2023-05-16 20:00",11.6068383682894,"Approved","OW354"
"2023-05-16 21:00",11.6058393303829,"Approved","OW354"
"2023-05-16 22:00",11.6058402924764,"Approved","OW354"
"2023-05-16 23:00",11.6038412545699,"Approved","OW354"
"2023-05-17 00:00",11.6048422166635,"Approved","OW354"
"2023-05-17 01:00",11.605843178757,"Approved","OW354"
"2023-05-17 02:00",11.6068441408505,"Approved","OW354"
"2023-05-17 03:00",11.606845102944,"Approved","OW354"
"2023-05-17 04:00",11.6058460650375,"Approved","OW354"
"2023-05-17 05:00",11.608847027131,"Approved","OW354"
"2023-05-17 06:00",11.6058479892246,"Approved","OW354"
"2023-05-17 07:00",11.6058489513181,"Approved","OW354"
"2023-05-17 08:00",11.6068499134116,"Approved","OW354"
"2023-05-17 09:00",11.6058508755051,"Approved","OW354"
"2023-05-17 10:00",11.6068518375986,"Approved","OW354"
"2023-05-17 11:00",11.6058527996921,"Approved","OW354"
"2023-05-17 12:00",11.6068537617856,"Approved","OW354"
"2023-05-17 13:00",11.6058547238792,"Approved","OW354"
"2023-05-17 14:00",11.6058556859727,"Approved","OW354"
"2023-05-17 15:00",11.6058566480662,"Approved","OW354"
"2023-05-17 16:00",11.6058576101597,"Approved","OW354"
"2023-05-17 17:00",11.6048585722532,"Approved","OW354"
"2023-05-17 18:00",11.6058595343467,"Approved","OW354"
"2023-05-17 19:00",11.6048604964403,"Approved","OW354"
"2023-05-17 20:00",11.6038614585338,"Approved","OW354"
"2023-05-17 21:00",11.6038624206273,"Approved","OW354"
"2023-05-17 22:00",11.6028633827208,"Approved","OW354"
"2023-05-17 23:00",11.6028643448143,"Approved","OW354"
"2023-05-18 00:00",11.6028653069078,"Approved","OW354"
"2023-05-18 01:00",11.6028662690013,"Approved","OW354"
"2023-05-18 02:00",11.6028672310949,"Approved","OW354"
"2023-05-18 03:00",11.6038681931884,"Approved","OW354"
"2023-05-18 04:00",11.6048691552819,"Approved","OW354"
"2023-05-18 05:00",11.6058701173754,"Approved","OW354"
"2023-05-18 06:00",11.6048710794689,"Approved","OW354"
"2023-05-18 07:00",11.6058720415624,"Approved","OW354"
"2023-05-18 08:00",11.605873003656,"Approved","OW354"
"2023-05-18 09:00",11.6048739657495,"Approved","OW354"
"2023-05-18 10:00",11.605874927843,"Approved","OW354"
"2023-05-18 11:00",11.6048758899365,"Approved","OW354"
"2023-05-18 12:00",11.60587685203,"Approved","OW354"
"2023-05-18 13:00",11.6058778141235,"Approved","OW354"
"2023-05-18 14:00",11.605878776217,"Approved","OW354"
"2023-05-18 15:00",11.6078797383106,"Approved","OW354"
"2023-05-18 16:00",11.6078807004041,"Approved","OW354"
"2023-05-18 17:00",11.6068816624976,"Approved","OW354"
"2023-05-18 18:00",11.6068826245911,"Approved","OW354"
"2023-05-18 19:00",11.6068835866846,"Approved","OW354"
"2023-05-18 20:00",11.6078845487781,"Approved","OW354"
"2023-05-18 21:00",11.6078855108717,"Approved","OW354"
"2023-05-18 22:00",11.6088864729652,"Approved","OW354"
"2023-05-18 23:00",11.6088874350587,"Approved","OW354"
"2023-05-19 00:00",11.6078883971522,"Approved","OW354"
"2023-05-19 01:00",11.6078893592457,"Approved","OW354"
"2023-05-19 02:00",11.6088903213392,"Approved","OW354"
"2023-05-19 03:00",11.6088912834327,"Approved","OW354"
"2023-05-19 04:00",11.6108922455263,"Approved","OW354"
"2023-05-19 05:00",11.6108932076198,"Approved","OW354"
"2023-05-19 06:00",11.6118941697133,"Approved","OW354"
"2023-05-19 07:00",11.6108951318068,"Approved","OW354"
"2023-05-19 08:00",11.6108960939003,"Approved","OW354"
"2023-05-19 09:00",11.6098970559938,"Approved","OW354"
"2023-05-19 10:00",11.6118980180874,"Approved","OW354"
"2023-05-19 11:00",11.6108989801809,"Approved","OW354"
"2023-05-19 12:00",11.6118999422744,"Approved","OW354"
"2023-05-19 13:00",11.6119009043679,"Approved","OW354"
"2023-05-19 14:00",11.6119018664614,"Approved","OW354"
"2023-05-19 15:00",11.6119028285549,"Approved","OW354"
"2023-05-19 16:00",11.6119037906485,"Approved","OW354"
"2023-05-19 17:00",11.611904752742,"Approved","OW354"
"2023-05-19 18:00",11.6109057148355,"Approved","OW354"
"2023-05-19 19:00",11.609906676929,"Approved","OW354"
"2023-05-19 20:00",11.6109076390225,"Approved","OW354"
"2023-05-19 21:00",11.610908601116,"Approved","OW354"
"2023-05-19 22:00",11.6109095632095,"Approved","OW354"
"2023-05-19 23:00",11.6089105253031,"Approved","OW354"
"2023-05-20 00:00",11.6099114873966,"Approved","OW354"
"2023-05-20 01:00",11.6089124494901,"Approved","OW354"
"2023-05-20 02:00",11.6089134115836,"Approved","OW354"
"2023-05-20 03:00",11.6089143736771,"Approved","OW354"
"2023-05-20 04:00",11.6119153357706,"Approved","OW354"
"2023-05-20 05:00",11.6119162978642,"Approved","OW354"
"2023-05-20 06:00",11.6109172599577,"Approved","OW354"
"2023-05-20 07:00",11.6119182220512,"Approved","OW354"
"2023-05-20 08:00",11.6119191841447,"Approved","OW354"
"2023-05-20 09:00",11.6119201462382,"Approved","OW354"
"2023-05-20 10:00",11.6119211083317,"Approved","OW354"
"2023-05-20 11:00",11.6119220704252,"Approved","OW354"
"2023-05-20 12:00",11.6129230325188,"Approved","OW354"
"2023-05-20 13:00",11.6149239946123,"Approved","OW354"
"2023-05-20 14:00",11.6139249567058,"Approved","OW354"
"2023-05-20 15:00",11.6139259187993,"Approved","OW354"
"2023-05-20 16:00",11.6139268808928,"Approved","OW354"
"2023-05-20 17:00",11.6109278429863,"Approved","OW354"
"2023-05-20 18:00",11.6129288050799,"Approved","OW354"
"2023-05-20 19:00",11.6119297671734,"Approved","OW354"
"2023-05-20 20:00",11.6119307292669,"Approved","OW354"
"2023-05-20 21:00",11.6119316913604,"Approved","OW354"
"2023-05-20 22:00",11.6109326534539,"Approved","OW354"
"2023-05-20 23:00",11.6109336155474,"Approved","OW354"
"2023-05-21 00:00",11.6109345776409,"Approved","OW354"
"2023-05-21 01:00",11.6109355397345,"Approved","OW354"
"2023-05-21 02:00",11.610936501828,"Approved","OW354"
"2023-05-21 03:00",11.6119374639215,"Approved","OW354"
"2023-05-21 04:00",11.612938426015,"Approved","OW354"
"2023-05-21 05:00",11.6129393881085,"Approved","OW354"
"2023-05-21 06:00",11.612940350202,"Approved","OW354"
"2023-05-21 07:00",11.6129413122956,"Approved","OW354"
"2023-05-21 08:00",11.6139422743891,"Approved","OW354"
"2023-05-21 09:00",11.6129432364826,"Approved","OW354"
"2023-05-21 10:00",11.6139441985761,"Approved","OW354"
"2023-05-21 11:00",11.6149451606696,"Approved","OW354"
"2023-05-21 12:00",11.6149461227631,"Approved","OW354"
"2023-05-21 13:00",11.6149470848566,"Approved","OW354"
"2023-05-21 14:00",11.6149480469502,"Approved","OW354"
"2023-05-21 15:00",11.6159490090437,"Approved","OW354"
"2023-05-21 16:00",11.6149499711372,"Approved","OW354"
"2023-05-21 17:00",11.6149509332307,"Approved","OW354"
"2023-05-21 18:00",11.6149518953242,"Approved","OW354"
"2023-05-21 19:00",11.6159528574177,"Approved","OW354"
"2023-05-21 20:00",11.6149538195113,"Approved","OW354"
"2023-05-21 21:00",11.6139547816048,"Approved","OW354"
"2023-05-21 22:00",11.6139557436983,"Approved","OW354"
"2023-05-21 23:00",11.6139567057918,"Approved","OW354"
"2023-05-22 00:00",11.6139576678853,"Approved","OW354"
"2023-05-22 01:00",11.6139586299788,"Approved","OW354"
"2023-05-22 02:00",11.6129595920723,"Approved","OW354"
"2023-05-22 03:00",11.6149605541659,"Approved","OW354"
"2023-05-22 04:00",11.6139615162594,"Approved","OW354"
"2023-05-22 05:00",11.6149624783529,"Approved","OW354"
"2023-05-22 06:00",11.6149634404464,"Approved","OW354"
"2023-05-22 07:00",11.6149644025399,"Approved","OW354"
"2023-05-22 08:00",11.6149653646334,"Approved","OW354"
"2023-05-22 09:00",11.614966326727,"Approved","OW354"
"2023-05-22 10:00",11.6149672888205,"Approved","OW354"
"2023-05-22 11:00",11.614968250914,"Approved","OW354"
"2023-05-22 12:00",11.6139692130075,"Approved","OW354"
"2023-05-22 13:00",11.614970175101,"Approved","OW354"
"2023-05-22 14:00",11.6149711371945,"Approved","OW354"
"2023-05-22 15:00",11.6159720992881,"Approved","OW354"
"2023-05-22 16:00",11.6159730613816,"Approved","OW354"
"2023-05-22 17:00",11.6159740234751,"Approved","OW354"
"2023-05-22 18:00",11.6159749855686,"Approved","OW354"
"2023-05-22 19:00",11.6159759476621,"Approved","OW354"
"2023-05-22 20:00",11.6169769097556,"Approved","OW354"
"2023-05-22 21:00",11.6159778718491,"Approved","OW354"
"2023-05-22 22:00",11.6159788339427,"Approved","OW354"
"2023-05-22 23:00",11.6159797960362,"Approved","OW354"
"2023-05-23 00:00",11.6159807581297,"Approved","OW354"
"2023-05-23 01:00",11.6159817202232,"Approved","OW354"
"2023-05-23 02:00",11.6149826823167,"Approved","OW354"
"2023-05-23 03:00",11.6149836444102,"Approved","OW354"
"2023-05-23 04:00",11.6159846065038,"Approved","OW354"
"2023-05-23 05:00",11.6159855685973,"Approved","OW354"
"2023-05-23 06:00",11.6159865306908,"Approved","OW354"
"2023-05-23 07:00",11.6159874927843,"Approved","OW354"
"2023-05-23 08:00",11.6169884548778,"Approved","OW354"
"2023-05-23 09:00",11.6159894169713,"Approved","OW354"
"2023-05-23 10:00",11.6149903790648,"Approved","OW354"
"2023-05-23 11:00",11.6159913411584,"Approved","OW354"
"2023-05-23 12:00",11.6169923032519,"Approved","OW354"
"2023-05-23 13:00",11.6149932653454,"Approved","OW354"
"2023-05-23 14:00",11.6159942274389,"Approved","OW354"
"2023-05-23 15:00",11.6159951895324,"Approved","OW354"
"2023-05-23 16:00",11.6159961516259,"Approved","OW354"
"2023-05-23 17:00",11.6159971137195,"Approved","OW354"
"2023-05-23 18:00",11.615998075813,"Approved","OW354"
"2023-05-23 19:00",11.6159990379065,"Approved","OW354"
"2023-05-23 20:00",11.616,"Approved","OW354"
"2023-05-23 21:00",11.616,"Approved","OW354"
"2023-05-23 22:00",11.6159959128065,"Approved","OW354"
"2023-05-23 23:00",11.6159918256131,"Approved","OW354"
"2023-05-24 00:00",11.6159877384196,"Approved","OW354"
"2023-05-24 01:00",11.6149836512262,"Approved","OW354"
"2023-05-24 02:00",11.6149795640327,"Approved","OW354"
"2023-05-24 03:00",11.6159754768392,"Approved","OW354"
"2023-05-24 04:00",11.6169713896458,"Approved","OW354"
"2023-05-24 05:00",11.6169673024523,"Approved","OW354"
"2023-05-24 06:00",11.6149632152589,"Approved","OW354"
"2023-05-24 07:00",11.6159591280654,"Approved","OW354"
"2023-05-24 08:00",11.6169550408719,"Approved","OW354"
"2023-05-24 09:00",11.6159509536785,"Approved","OW354"
"2023-05-24 10:00",11.614946866485,"Approved","OW354"
"2023-05-24 11:00",11.6159427792916,"Approved","OW354"
"2023-05-24 12:00",11.6169386920981,"Approved","OW354"
"2023-05-24 13:00",11.6179346049046,"Approved","OW354"
"2023-05-24 14:00",11.6179305177112,"Approved","OW354"
"2023-05-24 15:00",11.6179264305177,"Approved","OW354"
"2023-05-24 16:00",11.6169223433243,"Approved","OW354"
"2023-05-24 17:00",11.6169182561308,"Approved","OW354"
"2023-05-24 18:00",11.6169141689373,"Approved","OW354"
"2023-05-24 19:00",11.6169100817439,"Approved","OW354"
"2023-05-24 20:00",11.6169059945504,"Approved","OW354"
"2023-05-24 21:00",11.6169019073569,"Approved","OW354"
"2023-05-24 22:00",11.6148978201635,"Approved","OW354"
"2023-05-24 23:00",11.61489373297,"Approved","OW354"
"2023-05-25 00:00",11.6148896457766,"Approved","OW354"
"2023-05-25 01:00",11.6138855585831,"Approved","OW354"
"2023-05-25 02:00",11.6148814713896,"Approved","OW354"
"2023-05-25 03:00",11.6158773841962,"Approved","OW354"
"2023-05-25 04:00",11.6158732970027,"Approved","OW354"
"2023-05-25 05:00",11.6168692098093,"Approved","OW354"
"2023-05-25 06:00",11.6168651226158,"Approved","OW354"
"2023-05-25 07:00",11.6168610354223,"Approved","OW354"
"2023-05-25 08:00",11.6158569482289,"Approved","OW354"
"2023-05-25 09:00",11.6158528610354,"Approved","OW354"
"2023-05-25 10:00",11.615848773842,"Approved","OW354"
"2023-05-25 11:00",11.6158446866485,"Approved","OW354"
"2023-05-25 12:00",11.616840599455,"Approved","OW354"
"2023-05-25 13:00",11.6158365122616,"Approved","OW354"
"2023-05-25 14:00",11.6168324250681,"Approved","OW354"
"2023-05-25 15:00",11.6178283378747,"Approved","OW354"
"2023-05-25 16:00",11.6168242506812,"Approved","OW354"
"2023-05-25 17:00",11.6168201634877,"Approved","OW354"
"2023-05-25 18:00",11.6168160762943,"Approved","OW354"
"2023-05-25 19:00",11.6158119891008,"Approved","OW354"
"2023-05-25 20:00",11.6148079019074,"Approved","OW354"
"2023-05-25 21:00",11.6148038147139,"Approved","OW354"
"2023-05-25 22:00",11.6157997275204,"Approved","OW354"
"2023-05-25 23:00",11.613795640327,"Approved","OW354"
"2023-05-26 00:00",11.6137915531335,"Approved","OW354"
"2023-05-26 01:00",11.6137874659401,"Approved","OW354"
"2023-05-26 02:00",11.6147833787466,"Approved","OW354"
"2023-05-26 03:00",11.6157792915531,"Approved","OW354"
"2023-05-26 04:00",11.6167752043597,"Approved","OW354"
"2023-05-26 05:00",11.6177711171662,"Approved","OW354"
"2023-05-26 06:00",11.6167670299728,"Approved","OW354"
"2023-05-26 07:00",11.6177629427793,"Approved","OW354"
"2023-05-26 08:00",11.6177588555858,"Approved","OW354"
"2023-05-26 09:00",11.6167547683924,"Approved","OW354"
"2023-05-26 10:00",11.6177506811989,"Approved","OW354"
"2023-05-26 11:00",11.6167465940055,"Approved","OW354"
"2023-05-26 12:00",11.617742506812,"Approved","OW354"
"2023-05-26 13:00",11.6187384196185,"Approved","OW354"
"2023-05-26 14:00",11.6187343324251,"Approved","OW354"
"2023-05-26 15:00",11.6177302452316,"Approved","OW354"
"2023-05-26 16:00",11.6187261580381,"Approved","OW354"
"2023-05-26 17:00",11.6177220708447,"Approved","OW354"
"2023-05-26 18:00",11.6177179836512,"Approved","OW354"
"2023-05-26 19:00",11.6177138964578,"Approved","OW354"
"2023-05-26 20:00",11.6167098092643,"Approved","OW354"
"2023-05-26 21:00",11.6177057220708,"Approved","OW354"
"2023-05-26 22:00",11.6167016348774,"Approved","OW354"
"2023-05-26 23:00",11.6156975476839,"Approved","OW354"
"2023-05-27 00:00",11.6156934604905,"Approved","OW354"
"2023-05-27 01:00",11.617689373297,"Approved","OW354"
"2023-05-27 02:00",11.6166852861035,"Approved","OW354"
"2023-05-27 03:00",11.6186811989101,"Approved","OW354"
"2023-05-27 04:00",11.6186771117166,"Approved","OW354"
"2023-05-27 05:00",11.6196730245232,"Approved","OW354"
"2023-05-27 06:00",11.6206689373297,"Approved","OW354"
"2023-05-27 07:00",11.6196648501362,"Approved","OW354"
"2023-05-27 08:00",11.6196607629428,"Approved","OW354"
"2023-05-27 09:00",11.6196566757493,"Approved","OW354"
"2023-05-27 10:00",11.6206525885559,"Approved","OW354"
"2023-05-27 11:00",11.6206485013624,"Approved","OW354"
"2023-05-27 12:00",11.6206444141689,"Approved","OW354"
"2023-05-27 13:00",11.6216403269755,"Approved","OW354"
"2023-05-27 14:00",11.622636239782,"Approved","OW354"
"2023-05-27 15:00",11.6226321525886,"Approved","OW354"
"2023-05-27 16:00",11.6216280653951,"Approved","OW354"
"2023-05-27 17:00",11.6216239782016,"Approved","OW354"
"2023-05-27 18:00",11.6226198910082,"Approved","OW354"
"2023-05-27 19:00",11.6216158038147,"Approved","OW354"
"2023-05-27 20:00",11.6216117166213,"Approved","OW354"
"2023-05-27 21:00",11.6216076294278,"Approved","OW354"
"2023-05-27 22:00",11.6216035422343,"Approved","OW354"
"2023-05-27 23:00",11.6205994550409,"Approved","OW354"
"2023-05-28 00:00",11.6205953678474,"Approved","OW354"
"2023-05-28 01:00",11.621591280654,"Approved","OW354"
"2023-05-28 02:00",11.6225871934605,"Approved","OW354"
"2023-05-28 03:00",11.623583106267,"Approved","OW354"
"2023-05-28 04:00",11.6245790190736,"Approved","OW354"
"2023-05-28 05:00",11.6245749318801,"Approved","OW354"
"2023-05-28 06:00",11.6235708446866,"Approved","OW354"
"2023-05-28 07:00",11.6245667574932,"Approved","OW354"
"2023-05-28 08:00",11.6245626702997,"Approved","OW354"
"2023-05-28 09:00",11.6235585831063,"Approved","OW354"
"2023-05-28 10:00",11.6245544959128,"Approved","OW354"
"2023-05-28 11:00",11.6245504087193,"Approved","OW354"
"2023-05-28 12:00",11.6245463215259,"Approved","OW354"
"2023-05-28 13:00",11.6265422343324,"Approved","OW354"
"2023-05-28 14:00",11.625538147139,"Approved","OW354"
"2023-05-28 15:00",11.6245340599455,"Approved","OW354"
"2023-05-28 16:00",11.626529972752,"Approved","OW354"
"2023-05-28 17:00",11.6245258855586,"Approved","OW354"
"2023-05-28 18:00",11.6245217983651,"Approved","OW354"
"2023-05-28 19:00",11.6245177111717,"Approved","OW354"
"2023-05-28 20:00",11.6235136239782,"Approved","OW354"